Regional Weather Roundup
Issued by NWS Lake Charles, LA

Home | Current Version | Previous Version | Text Only | Print | Product List | Glossary On
Versions: 1 2 3 4 5 6 7 8 9 10 11 12 13 14 15 16 17 18 19 20 21 22 23 24 25 26 27
000
ASUS44 KLCH 210610
RWRLCH
REGIONAL WEATHER ROUNDUP
NATIONAL WEATHER SERVICE LAKE CHARLES LA
1200 AM CST SAT JAN 21 2017

Note: "fair" indicates few or no clouds below 12,000 feet with no
significant weather and/or obstructions to visibility.


ACROSS SOUTHEAST TEXAS

CITY           SKY/WX    TMP DP  RH WIND       PRES   REMARKS
BEAUMONT       CLOUDY    65  62  90 E3        29.67S
BEAUMONT CITY  CLOUDY    64  62  93 CALM      29.69R
ORANGE         CLOUDY    63  61  93 E3        29.69S
JASPER         LGT RAIN  65  64  96 NW3       29.72R
$$

ACROSS CENTRAL LOUISIANA

CITY           SKY/WX    TMP DP  RH WIND       PRES   REMARKS
LEESVILLE      CLOUDY    61  60  96 NE3       29.68R
FULLERTON      CLOUDY    62  61  96 CALM      29.66F
ALEXANDRIA INT CLOUDY    61  61 100 E7        29.67F
ESLER FIELD    TSTM      61  61 100 NW7       29.69F FOG
DERIDDER       MOCLDY    62  61  96 CALM      29.69F
OAKDALE        CLOUDY    64  63  97 N6        29.67S
OPELOUSAS      CLOUDY    65  64  96 SE8       29.67F
$$

ACROSS SOUTHWEST AND SOUTH CENTRAL LOUISIANA

CITY           SKY/WX    TMP DP  RH WIND       PRES   REMARKS
SULPHUR        CLOUDY    65  64  99 CALM      29.67F
LAKE CHARLES   TSTM      65  65 100 NW6       29.66F FOG
CHENNAULT INT  TSTM      64  64  99 N3        29.67F
CAMERON PHI    MOCLDY    66  66 100 S16G26    29.64F
DEQUINCY       RAIN      61  61  98 SE5       29.68F
JENNINGS       CLOUDY    70  70 100 SE5       29.93F THUNDER
LAFAYETTE      MOCLDY    72  70  93 SE8       29.66F
NEW IBERIA     LGT RAIN  71  68  90 SE18      29.68F
ABBEVILLE      CLOUDY    70  70 100 SE10G18   29.68F FOG
PATTERSON      CLOUDY    71  70  96 S12       29.73F
SALT POINT     NOT AVBL
$$

SELECTED SITES ACROSS THE REGION

CITY           SKY/WX    TMP DP  RH WIND       PRES   REMARKS
HOUSTON BUSH   TSTM      63  62  97 CALM      29.69S
HOUSTON HOBBY  CLOUDY    67  65  93 W10       29.67R THUNDER
GALVESTON      CLOUDY    71  70  96 S13       29.68S FOG
COLLEGE STAT   PTCLDY    59  56  89 CALM      29.66F
CONROE         MOCLDY    60  59  96 CALM      29.69R
HUNTSVILLE     CLOUDY    61  59  93 S6        29.67F
LUFKIN         LGT RAIN  60  57  89 NW8       29.66F
SHREVEPORT     CLOUDY    59  57  93 CALM      29.67F
MONROE         RAIN      66  59  78 S18G35    29.71F
NATCHEZ MS     CLOUDY    63  57  82 N5        29.73F
BATON ROUGE    CLOUDY    70  68  93 SE8       29.72F
N.O. INTL ARPT CLOUDY    71  70  96 S10G17    29.76F FOG
SLIDELL        CLOUDY    71  70  96 S8        29.77S FOG
$$

MARINE REPORTS

STATION/POSITION TIME  SKY/WX   TEMP    WIND        PRES    VSBY
                                AIR SEA DIR/SP/G
                 (UTC)          (F)     (DEG/KT/KT) (MB)    (MI)
BUOY 30 S HIGH I 0550            70 67  210/ 14/ 16 1004.5F
WVE H/P(F/S)=  2/ 7

SEA RIM ST PARK  0500            64      20/  4/  5 1005.4F
PORT ARTHUR      0548                    50/  3/  6 1004.6F
SABINE PASS N    0548                    CALM  /  2 1005.5F
TEXAS POINT      NOT AVBL
CALCASIEU PASS   0548                   210/ 19/ 24   N/A
LK CHARLES BEACH 0548                               1005.0F
MARSH ISLAND     NOT AVBL
FRESH WATER LOCK 0548                   140/ 11/ 14 1005.8F
AMERADA PASS     0542               53  140/  7/ 12 1006.5F
$$




USA.gov is the U.S. government's official web portal to all federal, state and local government web resources and services.